Regional Weather Roundup
Issued by NWS

Home | Current Version | Previous Version | Graphics & Text | Print | Product List | Glossary On
Versions: 1 2 3 4 5 6 7 8 9 10 11 12 13 14 15 16 17 18 19 20 21 22 23 24 25 26 27 28 29 30 31 32 33 34 35 36 37 38 39 40 41 42 43 44 45 46 47 48 49 50
000
ASUS43 KTOP 292308
RWRKS

WEATHER ROUNDUP FOR KANSAS
NATIONAL WEATHER SERVICE GOODLAND KS
600 PM CDT MON SEP 29 2014

NOTE:  "FAIR" INDICATES FEW OR NO CLOUDS BELOW 12,000 FEET WITH NO
SIGNIFICANT WEATHER AND/OR OBSTRUCTIONS TO VISIBILITY.

KSZ001>006-013>018-027>032-041>047-300000-
NORTHWEST KANSAS

CITY           SKY/WX    TMP DP  RH WIND       PRES   REMARKS
GOODLAND       SUNNY     80  52  37 S28G47    29.80F
HAYS           MOSUNNY   81  54  39 S18       29.89F
HILL CITY      MOSUNNY   83  51  33 S16G28    29.87F
RUSSELL        SUNNY     81  55  40 S13       29.89F
$$

KSZ061>065-074>080-084>089-300000-
SOUTHWEST KANSAS

CITY           SKY/WX    TMP DP  RH WIND       PRES   REMARKS
DODGE CITY     MOSUNNY   82  50  32 SE21      29.90F
ELKHART          N/A     78  53  41 S23         N/A
GARDEN CITY    MOSUNNY   81  51  35 S25G33    29.87F
GREAT BEND     SUNNY     81  54  39 SE18      29.90F
LIBERAL        MOSUNNY   81  52  36 S16G28    29.90S
PRATT          SUNNY     81  48  32 S14G20    29.93F
$$

KSZ066>073-081>083-090>101-300000-
SOUTHEAST KANSAS

CITY           SKY/WX    TMP DP  RH WIND       PRES   REMARKS
CHANUTE        SUNNY     81  61  50 SE6       29.96F
COFFEYVILLE    SUNNY     82  60  47 SE5       29.95S
HUTCHINSON     SUNNY     84  52  33 S16       29.93F
MEDICINE LODGE   N/A     83  53  35 S10G18    29.91F
NEWTON         SUNNY     79  54  41 S10       29.96F
PARSONS        SUNNY     83  60  45 SE5       29.97S
WICHITA INTL   MOSUNNY   83  55  38 SE12      29.93F
WICHITA JABRA  SUNNY     82  55  39 S8        29.93F
WICHITA MCCONL SUNNY     83  54  36 SE12      29.94F
WINFIELD       SUNNY     83  56  39 S13       29.95F
$$

KSZ007>012-019>026-033>040-048>060-102>105-300000-
NORTHEAST KANSAS

CITY           SKY/WX    TMP DP  RH WIND       PRES   REMARKS
CONCORDIA      SUNNY     80  55  42 S9        29.92F
EMPORIA        SUNNY     81  61  50 SE9       29.95F
LAWRENCE       SUNNY     82  58  43 S8        29.95F
MANHATTAN      SUNNY     84  57  39 S10       29.93F
MARYSVILLE     SUNNY     77  59  53 SE6       29.94S
OLATHE IND     SUNNY     81  59  47 S5        29.97F
OLATHE EXE     SUNNY     80  60  50 S7        29.97S
SALINA         MOSUNNY   83  57  41 SE13      29.92F
TOPEKA BILLARD MOSUNNY   83  58  42 E7        29.94F
TOPEKA FORBES  SUNNY     81  57  43 S6        29.95F
$$


USA.gov is the U.S. government's official web portal to all federal, state and local government web resources and services.